| time (UTC) | temp C | wind direction | speed KPH | gust KPH | rain 1hr cm | rain 24hr cm | rain mn cm | humidity % | barometer mb |
| 20260506080212 | 11 | 269 | 4.8 | 0.0 | 0.00 | 0.00 | 0.00 | 92 | 1011.5 |
| 20260506073211 | 10 | 177 | 6.4 | 0.0 | 0.00 | 0.00 | 0.00 | 93 | 1011.9 |
| 20260506070212 | 10 | 177 | 6.4 | 0.0 | 0.00 | 0.00 | 0.00 | 93 | 1012.0 |
| 20260506060210 | 10 | 137 | 1.6 | 0.0 | 0.00 | 0.00 | 0.00 | 95 | 1011.7 |
| 20260506050211 | 8 | 236 | 0.0 | 0.0 | 0.00 | 0.00 | 0.00 | 95 | 1012.0 |
| 20260506043211 | 8 | 236 | 0.0 | 0.0 | 0.00 | 0.00 | 0.00 | 94 | 1012.2 |
| 20260506040211 | 8 | 236 | 0.0 | 0.0 | 0.00 | 0.00 | 0.00 | 94 | 1012.5 |
| 20260506033211 | 8 | 236 | 0.0 | 0.0 | 0.00 | 0.00 | 0.00 | 94 | 1012.6 |
| 20260506030212 | 8 | 236 | 0.0 | 0.0 | 0.00 | 0.00 | 0.00 | 94 | 1013.0 |
| 20260506023211 | 8 | 236 | 0.0 | 0.0 | 0.00 | 0.00 | 0.00 | 94 | 1013.1 |
| 20260506020212 | 9 | 236 | 3.2 | 0.0 | 0.00 | 0.00 | 0.00 | 93 | 1013.1 |
| 20260506013211 | 9 | 271 | 4.8 | 0.0 | 0.00 | 0.00 | 0.00 | 94 | 1013.3 |
| 20260506010213 | 9 | 255 | 3.2 | 0.0 | 0.00 | 0.00 | 0.00 | 93 | 1013.7 |
| 20260506003209 | 9 | 297 | 0.0 | 0.0 | 0.00 | 0.00 | 0.00 | 93 | 1013.5 |
| 20260506000211 | 10 | 229 | 3.2 | 0.0 | 0.00 | 0.00 | 0.00 | 92 | 1013.8 |
| 20260505233209 | 10 | 237 | 3.2 | 0.0 | 0.00 | 0.00 | 0.00 | 92 | 1013.9 |
| 20260505230209 | 10 | 254 | 6.4 | 0.0 | 0.00 | 0.00 | 0.00 | 92 | 1013.9 |
| 20260505223210 | 10 | 232 | 1.6 | 0.0 | 0.00 | 0.00 | 0.00 | 90 | 1014.1 |
| 20260505220209 | 10 | 232 | 1.6 | 0.0 | 0.00 | 0.00 | 0.00 | 89 | 1014.0 |
| 20260505213211 | 11 | 245 | 4.8 | 0.0 | 0.00 | 0.00 | 0.08 | 89 | 1014.2 |
| 20260505210215 | 11 | 223 | 12.9 | 0.0 | 0.00 | 0.00 | 0.08 | 88 | 1014.2 |
| 20260505203209 | 12 | 246 | 9.7 | 0.0 | 0.00 | 0.00 | 0.08 | 87 | 1013.9 |
| 20260505200210 | 12 | 254 | 16.1 | 0.0 | 0.00 | 0.00 | 0.08 | 87 | 1014.0 |
| 20260505193209 | 13 | 190 | 6.4 | 0.0 | 0.00 | 0.00 | 0.08 | 86 | 1013.7 |
| 20260505190215 | 13 | 240 | 6.4 | 0.0 | 0.00 | 0.00 | 0.08 | 83 | 1012.9 |
| 20260505183212 | 15 | 236 | 11.3 | 0.0 | 0.00 | 0.00 | 0.05 | 76 | 1012.6 |
| 20260505180211 | 15 | 265 | 19.3 | 0.0 | 0.00 | 0.00 | 0.05 | 74 | 1012.3 |
| 20260505173210 | 16 | 263 | 16.1 | 0.0 | 0.00 | 0.00 | 0.05 | 70 | 1012.2 |
| 20260505170210 | 16 | 217 | 6.4 | 0.0 | 0.00 | 0.00 | 0.05 | 66 | 1011.9 |
| 20260505163211 | 16 | 252 | 6.4 | 0.0 | 0.00 | 0.00 | 0.05 | 65 | 1011.9 |
| 20260505153210 | 16 | 180 | 4.8 | 0.0 | 0.00 | 0.00 | 0.05 | 70 | 1011.8 |
| 20260505150216 | 16 | 232 | 4.8 | 0.0 | 0.00 | 0.00 | 0.05 | 72 | 1011.9 |
| 20260505140210 | 15 | 343 | 12.9 | 0.0 | 0.00 | 0.00 | 0.05 | 80 | 1012.1 |
| 20260505130210 | 15 | 312 | 11.3 | 0.0 | 0.00 | 0.00 | 0.05 | 83 | 1012.3 |
| 20260505123210 | 15 | 259 | 6.4 | 0.0 | 0.00 | 0.00 | 0.03 | 77 | 1012.7 |
| 20260505120210 | 16 | 182 | 12.9 | 0.0 | 0.00 | 0.00 | 0.00 | 70 | 1012.9 |
| 20260505113210 | 17 | 192 | 12.9 | 0.0 | 0.00 | 0.00 | 0.00 | 65 | 1012.7 |
| 20260505110211 | 16 | 229 | 8.0 | 0.0 | 0.00 | 0.00 | 0.00 | 66 | 1012.4 |
| 20260505100212 | 16 | 275 | 11.3 | 0.0 | 0.00 | 0.00 | 0.00 | 67 | 1012.7 |
| 20260505093212 | 16 | 297 | 4.8 | 0.0 | 0.00 | 0.00 | 0.00 | 69 | 1012.9 |
| 20260505090212 | 16 | 269 | 8.0 | 0.0 | 0.00 | 0.00 | 0.00 | 70 | 1013.0 |
| 20260505083211 | 16 | 218 | 3.2 | 0.0 | 0.00 | 0.00 | 0.00 | 72 | 1013.1 |